Вернуться в каталог

COSMOS 1579 COOLANT

LostLEO
NORAD 28271·DEBRIS·🇷🇺 Russia

Запущен Jun 29, 1984 с Baikonur Cosmodrome

Loading…

Ближайшие Пролёты (ближайшие 24 часа)

TLE

УстаревшееSource: Space-Track

Эпоха: Jan 17, 2024, 15:25 UTC

1 28271U 84069AG  24017.64238222  .00000448  00000-0  41882-3 0  9992
2 28271  65.0550  28.2775 0060582 291.4918  67.9694 13.91403557529194

Отслеживайте COSMOS 1579 COOLANT в реальном времени с AllMySat

Download on the App Store